Regional Weather Roundup
Issued by NWS

Home | Current Version | Previous Version | Text Only | Print | Product List | Glossary Off
Versions: 1 2 3 4 5 6 7 8 9 10 11 12 13 14 15 16 17 18 19 20 21 22 23 24 25 26 27 28 29 30 31 32 33 34 35 36 37 38 39 40 41 42 43 44 45 46 47 48 49 50

191
ASUS45 KABQ 241210
RWRNM
NEW MEXICO REGIONAL WEATHER ROUNDUP
NATIONAL WEATHER SERVICE ALBUQUERQUE NM
600 AM MDT MON JUL 24 2017

NOTE: "FAIR" MEANS FEW OR NO CLOUDS BELOW 12,000 FEET AGL WITH NO
       SIGNIFICANT WEATHER OR OBSTRUCTIONS TO VISION.

      THIS PRODUCT IS RELEASED AS TWO VERSIONS.  ONE VERSION NEAR
      THE TOP OF THE HOUR CONTAINING PRELIMINARY DATA FROM ALBUQUERQUE
      AND OTHER STATIONS.  A FINAL VERSION WITH ADDITIONAL DATA IS
      ISSUED ABOUT 10 MINUTES AFTER THE HOUR.

NMZ501-503-504-510>518-241300-
NORTHWEST PLATEAU/NORTHCENTRAL MOUNTAINS

CITY           SKY/WX    TMP DP  RH WIND       PRES   REMARKS
FARMINGTON     MOCLDY    65  60  84 SW3       30.20F
6HR MIN TEMP:  65; 6HR MAX TEMP:  71; 6HR PCP:  0.02;

LOS ALAMOS     FAIR      63  46  53 CALM      30.33S
SANTA FE       FAIR      56  52  86 N5        30.26S
6HR MIN TEMP:  55; 6HR MAX TEMP:  67;

TAOS           FAIR      52  39  62 CALM      30.31F
ANGEL FIRE     FOG       43  43  97 CALM      30.43S VSB 1/4

$$
NMZ402-403-502-505>509-241300-
WESTCENTRAL MOUNTAINS/SOUTHWEST MOUNTAINS

CITY           SKY/WX    TMP DP  RH WIND       PRES   REMARKS
GALLUP         FAIR      60  56  86 E5        30.26F
6HR MIN TEMP:  60; 6HR MAX TEMP:  73; 6HR PCP: TRACE;

GRANTS         FAIR      65  54  68 N3        30.28S
SILVER CITY    CLOUDY    66  61  82 CALM      30.17R

$$
NMZ407-409-411-412-241300-
SOUTHERN DESERTS

CITY           SKY/WX    TMP DP  RH WIND       PRES   REMARKS
DEMING         FAIR      67  65  93 E6        30.11R
6HR MIN TEMP:  67; 6HR MAX TEMP:  70;

LAS CRUCES     FAIR      67  66  97 SW3       30.12R
HOLLOMAN AFB   FAIR      66  66 100 N7        30.11R
ALAMOGORDO     FAIR      64  64 100 E5        30.11R
T OR C         FAIR      69  62  78 CALM      30.14R
6HR MIN TEMP:  67; 6HR MAX TEMP:  75; 6HR PCP: TRACE;


$$
NMZ519>523-241300-
CENTRAL VALLEYS/CENTRAL HIGHLANDS

CITY           SKY/WX    TMP DP  RH WIND       PRES   REMARKS
ALBUQUERQUE    FAIR      67  58  72 E6        30.20S
6HR MIN TEMP:  67; 6HR MAX TEMP:  73;

DOUBLE EAGLE   MOCLDY    64  55  72 VRB6      30.24S
MORIARTY ARPT  FAIR      56  55  97 CALM      30.27S
6HR MIN TEMP:  56; 6HR MAX TEMP:  67;

CLINES CORNERS FAIR      60  49  66 NE7       30.31S
6HR MIN TEMP:  58; 6HR MAX TEMP:  64;

BELEN          FAIR      65  62  90 NE6       30.18S
6HR MIN TEMP:  64; 6HR MAX TEMP:  71;

SOCORRO        FAIR      66  63  91 SW3       30.17R
6HR MIN TEMP:  65; 6HR MAX TEMP:  68;


$$
NMZ524>526-539-540-241300-
SOUTHCENTRAL MOUNTAINS

CITY           SKY/WX    TMP DP  RH WIND       PRES   REMARKS
RUIDOSO        FAIR      57  54  88 W6        30.30R

$$
NMZ527>531-241300-
NORTHEAST HIGHLANDS/NORTHEAST PLAINS

CITY           SKY/WX    TMP DP  RH WIND       PRES   REMARKS
LAS VEGAS      FAIR      53  50  89 VRB3      30.30S
6HR MIN TEMP:  53; 6HR MAX TEMP:  61;

RATON          FAIR      54  53  97 NE6       30.25S
6HR MIN TEMP:  54; 6HR MAX TEMP:  60;

CLAYTON        FAIR      60  59  96 W7        30.16S
6HR MIN TEMP:  59; 6HR MAX TEMP:  67;


$$
NMZ532>537-241300-
EASTCENTRAL PLAINS

CITY           SKY/WX    TMP DP  RH WIND       PRES   REMARKS
SANTA ROSA     FAIR      63  56  78 CALM      30.15S
TUCUMCARI      FAIR      66  64  93 W9        30.08F
6HR MIN TEMP:  65; 6HR MAX TEMP:  71;

CANNON AFB     FAIR      69  69 100 CALM      30.13R
6HR MIN TEMP:  67; 6HR MAX TEMP:  70;

CLOVIS AIRPORT MOCLDY    69  64  84 W8        30.13R

$$
NMZ028-029-538-241300-
SOUTHEAST PLAINS

CITY           SKY/WX    TMP DP  RH WIND       PRES   REMARKS
ROSWELL        FAIR      71  61  70 NW3       30.07R
6HR MIN TEMP:  71; 6HR MAX TEMP:  75;

ARTESIA        FAIR      73  66  78 MISG      30.07R
CARLSBAD       FAIR      68  68 100 CALM      30.04R
6HR MIN TEMP:  68; 6HR MAX TEMP:  72;

HOBBS          CLEAR     70  66  88 CALM      30.09S


$$




USA.gov is the U.S. government's official web portal to all federal, state and local government web resources and services.